Weather History for Jerez de la Frontera, Spain

Change the Weather History Date:

Wednesday, October 31, 2012

  Actual Average Record
Temperature  
Mean Temperature 58 °F -  
Max Temperature 65 °F 65 °F 84 °F (2001)
Min Temperature 51 °F 47 °F 42 °F (2013)
Degree Days  
Heating Degree Days 7    
Growing Degree Days 8 (Base 50)    
Moisture  
Dew Point 56 °F    
Average Humidity 91    
Maximum Humidity 100    
Minimum Humidity 73    
Precipitation  
Precipitation 0.00 in 0.14 in - ()
Sea Level Pressure  
Sea Level Pressure 29.63 in    
Wind  
Wind Speed 2 mph ()    
Max Wind Speed 7 mph    
Max Gust Speed -    
Visibility 4.7 miles    
Events Fog    
Averages and records for this station are not official NWS values.
T = Trace of Precipitation, MM = Missing Value Source: Averaged Metar Reports

Daily Weather History Graph

Daily Weather History Graph

Search for Another Location

Airport:

Trip Planner

Search our weather history database for the weather conditions in past years. The results will help you decide how hot, cold, wet, or windy it might be!

Date:

Astronomy

Oct. 31, 2012 Rise Set
Actual Time 7:47 AM CET 6:27 PM CET
Civil Twilight 7:20 AM CET 6:54 PM CET
Nautical Twilight 6:49 AM CET 7:25 PM CET
Astronomical Twilight 6:19 AM CET 7:55 PM CET
Moon 7:32 PM CET (10/31) 9:13 AM CET (10/31)
Length of Visible Light 11h 34m
Length of Day
10h 40m
Full, 98% of the Moon is Illuminated
Oct 31
Full
Nov 7
Last Quarter
Nov 13
New
Nov 20
First Quarter
Nov 28
Full

Hourly Weather History & Observations

Time (CET) Temp. Dew Point Humidity Pressure Visibility Wind Dir Wind Speed Gust Speed Precip Events Conditions
1:00 AM 54 °F 54 °F 100% 29.53 in - North 5.8 mph - -   Unknown Precipitation
5:00 AM 51.8 °F 51.8 °F 100% 29.56 in 0.1 mi Calm Calm - N/A Fog Fog
5:30 AM 51.8 °F 51.8 °F 100% 29.56 in 0.1 mi Calm Calm - N/A Fog Fog
6:00 AM 51.8 °F 51.8 °F 100% 29.56 in 0.1 mi Calm Calm - N/A Fog Fog
6:30 AM 51.8 °F 51.8 °F 100% 29.56 in 0.1 mi Calm Calm - N/A Fog Fog
7:00 AM 53.6 °F 53.6 °F 100% 29.56 in 0.1 mi Calm Calm - N/A Fog Fog
7:30 AM 53.6 °F 53.6 °F 100% 29.56 in 0.1 mi Variable 2.3 mph - N/A Fog Fog
8:00 AM 53.6 °F 53.6 °F 100% 29.59 in 0.2 mi Variable 1.2 mph - N/A Fog Fog
8:30 AM 53.6 °F 53.6 °F 100% 29.59 in 0.2 mi Variable 1.2 mph - N/A Fog Fog
9:00 AM 53.6 °F 53.6 °F 100% 29.62 in 0.2 mi Variable 1.2 mph - N/A Fog Fog
9:30 AM 53.6 °F 53.6 °F 100% 29.65 in 0.2 mi Variable 2.3 mph - N/A Fog Fog
10:00 AM 55.4 °F 55.4 °F 100% 29.65 in 0.2 mi Calm Calm - N/A Fog Fog
10:19 AM 55.4 °F 55.4 °F 100% 29.65 in 0.9 mi Variable 1.2 mph - N/A Fog Patches of Fog
10:30 AM 55.4 °F 55.4 °F 100% 29.65 in 0.9 mi Variable 1.2 mph - N/A Fog Patches of Fog
10:52 AM 57.2 °F 57.2 °F 100% 29.65 in 3.1 mi Variable 1.2 mph - N/A Fog Overcast
11:00 AM 57.2 °F 57.2 °F 100% 29.65 in 3.1 mi Variable 1.2 mph - N/A   Overcast
11:30 AM 59.0 °F 59.0 °F 100% 29.65 in 4.3 mi Calm Calm - N/A   Mostly Cloudy
12:00 PM 60.8 °F 60.8 °F 100% 29.68 in 6.2 mi Variable 1.2 mph - N/A   Mostly Cloudy
12:30 PM 60.8 °F 59.0 °F 94% 29.68 in 6.2 mi Variable 1.2 mph - N/A   Mostly Cloudy
1:00 PM 64 °F 64 °F 98% 29.67 in 19 mi Calm Calm - -   Scattered Clouds
1:00 PM 62.6 °F 60.8 °F 94% 29.65 in 6.2 mi Calm Calm - N/A   Partly Cloudy
1:30 PM 62.6 °F 59.0 °F 88% 29.65 in 6.2 mi Variable 1.2 mph - N/A   Partly Cloudy
2:00 PM 62.6 °F 57.2 °F 82% 29.65 in 6.2 mi SW 6.9 mph - N/A   Partly Cloudy
2:30 PM 64.4 °F 57.2 °F 77% 29.65 in 6.2 mi SW 5.8 mph - N/A   Partly Cloudy
3:00 PM 64.4 °F 55.4 °F 73% 29.65 in 6.2 mi WSW 6.9 mph - N/A   Partly Cloudy
3:30 PM 64.4 °F 55.4 °F 73% 29.62 in 6.2 mi WSW 5.8 mph - N/A   Partly Cloudy
4:00 PM 64.4 °F 55.4 °F 73% 29.62 in 6.2 mi WSW 4.6 mph - N/A   Partly Cloudy
4:30 PM 64.4 °F 55.4 °F 73% 29.62 in 6.2 mi WSW 5.8 mph - N/A   Partly Cloudy
5:00 PM 64.4 °F 55.4 °F 73% 29.65 in 6.2 mi WSW 6.9 mph - N/A   Partly Cloudy
5:30 PM 64.4 °F 55.4 °F 73% 29.65 in 6.2 mi WSW 4.6 mph - N/A   Partly Cloudy
6:00 PM 62.6 °F 55.4 °F 77% 29.65 in 6.2 mi WSW 4.6 mph - N/A   Partly Cloudy
7:00 PM 62 °F 57 °F 78% 29.67 in 19 mi WSW 2.3 mph - -   Scattered Clouds
7:00 PM 62.6 °F 55.4 °F 77% 29.65 in 6.2 mi Variable 1.2 mph - N/A   Partly Cloudy
7:30 PM 60.8 °F 55.4 °F 82% 29.65 in 6.2 mi Calm Calm - N/A   Partly Cloudy
8:00 PM 60.8 °F 57.2 °F 88% 29.65 in 6.2 mi Calm Calm - N/A   Partly Cloudy
8:30 PM 60.8 °F 57.2 °F 88% 29.68 in 6.2 mi Calm Calm - N/A   Partly Cloudy
9:00 PM 59.0 °F 57.2 °F 94% 29.65 in 6.2 mi Variable 1.2 mph - N/A   Scattered Clouds
9:30 PM 59.0 °F 57.2 °F 94% 29.65 in 6.2 mi Variable 1.2 mph - N/A   Scattered Clouds
10:00 PM 59.0 °F 57.2 °F 94% 29.65 in 6.2 mi Variable 1.2 mph - N/A   Partly Cloudy
10:30 PM 59.0 °F 57.2 °F 94% 29.65 in 6.2 mi Calm Calm - N/A   Scattered Clouds
11:00 PM 59.0 °F 57.2 °F 94% 29.65 in 6.2 mi Variable 2.3 mph - N/A   Mostly Cloudy